TimeEDT,TemperatureF,Dew PointF,Humidity,Sea Level PressureIn,VisibilityMPH,Wind Direction,Wind SpeedMPH,Gust SpeedMPH,PrecipitationIn,Events,Conditions,WindDirDegrees,DateUTC
12:15 AM,68.0,62.6,83,30.05,10.0,ENE,6.9,-,N/A,,Overcast,70,2013-05-02 04:15:00
12:35 AM,68.0,60.8,78,30.05,10.0,ENE,5.8,-,N/A,,Overcast,60,2013-05-02 04:35:00
12:53 AM,66.9,57.9,73,30.03,-9999.0,ENE,6.9,-,N/A,,Unknown,70,2013-05-02 04:53:00
12:55 AM,68.0,60.8,78,30.05,10.0,NE,8.1,-,N/A,,Mostly Cloudy,50,2013-05-02 04:55:00
1:15 AM,68.0,60.8,78,30.04,10.0,ENE,4.6,-,N/A,,Mostly Cloudy,70,2013-05-02 05:15:00
1:35 AM,68.0,60.8,78,30.03,10.0,ENE,8.1,-,N/A,,Scattered Clouds,70,2013-05-02 05:35:00
1:53 AM,66.0,57.9,75,30.00,-9999.0,ENE,8.1,-,N/A,,Unknown,60,2013-05-02 05:53:00
1:55 AM,66.2,60.8,83,30.01,10.0,NE,5.8,-,N/A,,Scattered Clouds,50,2013-05-02 05:55:00
2:15 AM,66.2,62.6,88,30.01,10.0,NE,5.8,-,N/A,,Scattered Clouds,50,2013-05-02 06:15:00
2:35 AM,66.2,62.6,88,30.01,10.0,NE,3.5,-,N/A,,Scattered Clouds,50,2013-05-02 06:35:00
2:53 AM,66.0,59.0,78,29.99,-9999.0,NE,4.6,-,N/A,,Unknown,40,2013-05-02 06:53:00
2:55 AM,66.2,62.6,88,30.01,10.0,NE,4.6,-,N/A,,Scattered Clouds,40,2013-05-02 06:55:00
3:15 AM,66.2,64.4,94,30.01,10.0,Calm,Calm,-,N/A,,Mostly Cloudy,0,2013-05-02 07:15:00
3:35 AM,66.2,66.2,100,30.00,10.0,NE,5.8,-,N/A,,Mostly Cloudy,40,2013-05-02 07:35:00
3:53 AM,64.9,59.0,81,29.99,-9999.0,NE,5.8,-,N/A,,Unknown,40,2013-05-02 07:53:00
3:55 AM,64.4,64.4,100,30.00,10.0,NE,4.6,-,N/A,,Mostly Cloudy,40,2013-05-02 07:55:00
4:15 AM,64.4,64.4,100,29.99,10.0,NE,5.8,-,N/A,,Mostly Cloudy,40,2013-05-02 08:15:00
4:35 AM,64.4,64.4,100,30.00,10.0,NNE,4.6,-,N/A,,Scattered Clouds,20,2013-05-02 08:35:00
4:53 AM,64.9,60.1,84,29.98,-9999.0,NE,5.8,-,N/A,,Unknown,40,2013-05-02 08:53:00
4:55 AM,64.4,64.4,100,29.99,10.0,NNE,5.8,-,N/A,,Overcast,30,2013-05-02 08:55:00
5:15 AM,64.4,64.4,100,29.99,10.0,NE,3.5,-,N/A,,Overcast,40,2013-05-02 09:15:00
5:35 AM,64.4,64.4,100,29.98,10.0,NE,4.6,-,N/A,,Overcast,40,2013-05-02 09:35:00
5:53 AM,64.9,60.1,84,29.97,-9999.0,NE,6.9,-,N/A,,Unknown,40,2013-05-02 09:53:00
5:55 AM,66.2,66.2,100,29.98,10.0,NE,5.8,-,N/A,,Overcast,40,2013-05-02 09:55:00
6:15 AM,66.2,66.2,100,29.97,10.0,NE,4.6,-,N/A,,Overcast,40,2013-05-02 10:15:00
6:35 AM,66.2,66.2,100,29.98,10.0,NE,6.9,-,N/A,,Overcast,40,2013-05-02 10:35:00
6:53 AM,66.0,61.0,84,29.97,-9999.0,NE,4.6,-,0.01,,Unknown,50,2013-05-02 10:53:00
6:55 AM,66.2,66.2,100,29.98,10.0,ENE,5.8,-,N/A,,Overcast,60,2013-05-02 10:55:00
7:15 AM,68.0,68.0,100,29.98,10.0,NE,6.9,-,N/A,,Overcast,50,2013-05-02 11:15:00
7:35 AM,68.0,68.0,100,29.98,10.0,NE,8.1,-,N/A,,Overcast,40,2013-05-02 11:35:00
7:53 AM,68.0,62.1,81,29.98,-9999.0,NE,9.2,-,N/A,,Unknown,40,2013-05-02 11:53:00
7:55 AM,68.0,68.0,100,29.99,10.0,NE,8.1,-,N/A,,Overcast,40,2013-05-02 11:55:00
8:15 AM,68.0,68.0,100,30.00,10.0,NE,8.1,-,N/A,,Overcast,50,2013-05-02 12:15:00
8:35 AM,68.0,68.0,100,30.00,10.0,NE,9.2,-,N/A,,Overcast,40,2013-05-02 12:35:00
8:53 AM,68.0,63.0,84,29.99,-9999.0,NE,6.9,-,N/A,,Unknown,50,2013-05-02 12:53:00
8:55 AM,68.0,68.0,100,30.00,10.0,NE,9.2,-,N/A,,Overcast,50,2013-05-02 12:55:00
9:15 AM,68.0,68.0,100,30.00,10.0,NE,5.8,-,N/A,,Overcast,40,2013-05-02 13:15:00
9:35 AM,69.8,69.8,100,30.00,10.0,NE,8.1,-,N/A,,Overcast,50,2013-05-02 13:35:00
9:53 AM,70.0,64.0,81,29.99,-9999.0,Variable,5.8,-,N/A,,Unknown,0,2013-05-02 13:53:00
9:55 AM,69.8,69.8,100,30.00,10.0,NNE,5.8,-,N/A,,Overcast,30,2013-05-02 13:55:00
10:15 AM,71.6,71.6,100,30.00,10.0,NNE,9.2,-,N/A,,Overcast,30,2013-05-02 14:15:00
10:35 AM,71.6,69.8,94,30.00,10.0,NE,6.9,-,N/A,,Overcast,40,2013-05-02 14:35:00
10:53 AM,72.0,64.0,76,29.98,-9999.0,Variable,6.9,-,N/A,,Unknown,0,2013-05-02 14:53:00
10:55 AM,71.6,69.8,94,29.99,10.0,NE,6.9,-,N/A,,Overcast,50,2013-05-02 14:55:00
11:15 AM,73.4,68.0,83,29.99,10.0,NNE,9.2,16.1,N/A,,Overcast,30,2013-05-02 15:15:00
11:35 AM,73.4,68.0,83,29.99,10.0,ENE,4.6,-,N/A,,Overcast,70,2013-05-02 15:35:00
11:53 AM,73.0,66.0,79,29.98,-9999.0,NE,9.2,-,N/A,,Unknown,40,2013-05-02 15:53:00
11:55 AM,73.4,69.8,88,29.99,10.0,NE,6.9,-,N/A,Rain,Light Rain,50,2013-05-02 15:55:00
12:15 PM,75.2,69.8,83,29.98,10.0,NE,6.9,-,N/A,,Overcast,40,2013-05-02 16:15:00
12:35 PM,78.8,69.8,74,29.97,10.0,ENE,10.4,-,N/A,,Mostly Cloudy,70,2013-05-02 16:35:00
12:53 PM,75.0,66.9,76,29.96,-9999.0,NE,15.0,20.7,0.01,,Unknown,40,2013-05-02 16:53:00
12:55 PM,75.2,69.8,83,29.97,10.0,NE,11.5,20.7,N/A,Rain,Light Rain,40,2013-05-02 16:55:00
1:15 PM,75.2,73.4,94,29.96,10.0,NE,9.2,16.1,N/A,,Overcast,50,2013-05-02 17:15:00
1:35 PM,78.8,71.6,78,29.96,10.0,NNE,10.4,-,N/A,,Mostly Cloudy,30,2013-05-02 17:35:00
1:53 PM,78.1,66.0,66,29.94,-9999.0,NE,10.4,17.3,N/A,,Unknown,50,2013-05-02 17:53:00
1:55 PM,77.0,68.0,74,29.95,10.0,NE,10.4,16.1,N/A,,Mostly Cloudy,50,2013-05-02 17:55:00
2:15 PM,78.8,68.0,69,29.95,10.0,NE,12.7,20.7,N/A,,Mostly Cloudy,40,2013-05-02 18:15:00
2:35 PM,77.0,68.0,74,29.95,10.0,NE,11.5,16.1,N/A,,Overcast,40,2013-05-02 18:35:00
2:53 PM,79.0,64.9,62,29.93,-9999.0,NE,16.1,24.2,N/A,,Unknown,50,2013-05-02 18:53:00
2:55 PM,78.8,68.0,69,29.94,10.0,NE,15.0,21.9,N/A,,Overcast,40,2013-05-02 18:55:00
3:15 PM,75.2,66.2,73,29.94,10.0,ENE,9.2,18.4,N/A,,Overcast,60,2013-05-02 19:15:00
3:35 PM,73.4,66.2,78,29.94,10.0,SE,8.1,16.1,N/A,,Overcast,130,2013-05-02 19:35:00
3:53 PM,70.0,64.9,84,29.93,-9999.0,SE,9.2,-,N/A,,Unknown,130,2013-05-02 19:53:00
3:55 PM,69.8,69.8,100,29.94,10.0,ESE,10.4,-,N/A,,Light Drizzle,120,2013-05-02 19:55:00
4:15 PM,69.8,69.8,100,29.94,1.0,East,5.8,-,0.26,Rain,Heavy Rain,80,2013-05-02 20:15:00
4:35 PM,69.8,69.8,100,29.94,10.0,East,8.1,-,0.27,,Overcast,90,2013-05-02 20:35:00
4:53 PM,69.1,64.9,87,29.92,-9999.0,ENE,8.1,-,0.29,,Unknown,70,2013-05-02 20:53:00
4:55 PM,69.8,69.8,100,29.94,10.0,ENE,6.9,-,0.27,Rain,Light Rain,70,2013-05-02 20:55:00
5:15 PM,69.8,69.8,100,29.93,10.0,East,5.8,-,0.01,Rain,Rain,80,2013-05-02 21:15:00
5:35 PM,69.8,69.8,100,29.93,5.0,NE,6.9,-,0.03,Rain,Rain,40,2013-05-02 21:35:00
5:53 PM,70.0,66.9,90,29.91,-9999.0,ENE,6.9,-,0.04,,Unknown,60,2013-05-02 21:53:00
5:55 PM,69.8,-9999,N/A,29.93,7.0,NE,5.8,-,0.04,Rain,Light Rain,50,2013-05-02 21:55:00
6:15 PM,69.8,-9999,N/A,29.92,5.0,NE,6.9,-,0.02,Rain,Light Rain,40,2013-05-02 22:15:00
6:35 PM,69.8,-9999,N/A,29.92,3.0,NE,4.6,-,0.07,Rain,Heavy Rain,50,2013-05-02 22:35:00
6:53 PM,69.1,66.0,90,29.91,-9999.0,NE,3.5,-,0.10,,Unknown,40,2013-05-02 22:53:00
6:55 PM,69.8,-9999,N/A,29.93,4.0,Calm,Calm,-,0.10,Rain,Rain,0,2013-05-02 22:55:00
7:15 PM,69.8,-9999,N/A,29.92,5.0,NE,5.8,-,0.01,Rain,Light Rain,40,2013-05-02 23:15:00
7:35 PM,69.8,-9999,N/A,29.92,2.5,NE,5.8,-,0.08,Rain,Heavy Rain,50,2013-05-02 23:35:00
7:53 PM,69.1,64.9,87,29.91,-9999.0,NE,8.1,-,0.15,,Unknown,40,2013-05-02 23:53:00
7:55 PM,69.8,-9999,N/A,29.92,5.0,NE,9.2,17.3,0.12,Rain,Rain,40,2013-05-02 23:55:00
8:15 PM,68.0,-9999,N/A,29.92,7.0,NNE,9.2,-,0.01,,Drizzle,30,2013-05-03 00:15:00
8:35 PM,68.0,-9999,N/A,29.92,10.0,NE,8.1,-,0.01,Rain,Rain,40,2013-05-03 00:35:00
8:53 PM,68.0,64.9,90,29.91,-9999.0,NE,9.2,17.3,0.02,,Unknown,40,2013-05-03 00:53:00
8:55 PM,68.0,-9999,N/A,29.92,10.0,NE,8.1,-,0.02,,Light Drizzle,40,2013-05-03 00:55:00
9:15 PM,68.0,-9999,N/A,29.93,7.0,NE,9.2,16.1,N/A,,Drizzle,40,2013-05-03 01:15:00
9:35 PM,68.0,-9999,N/A,29.93,10.0,NE,9.2,-,0.01,,Overcast,40,2013-05-03 01:35:00
9:53 PM,68.0,64.0,87,29.91,-9999.0,NNE,8.1,-,0.01,,Unknown,30,2013-05-03 01:53:00
9:55 PM,68.0,-9999,N/A,29.93,10.0,NNE,9.2,-,0.01,,Overcast,30,2013-05-03 01:55:00
10:15 PM,68.0,-9999,N/A,29.92,10.0,NE,5.8,-,N/A,,Overcast,40,2013-05-03 02:15:00
10:35 PM,68.0,-9999,N/A,29.93,10.0,ENE,6.9,-,N/A,,Overcast,60,2013-05-03 02:35:00
10:53 PM,68.0,64.0,87,29.91,-9999.0,NE,6.9,17.3,N/A,,Unknown,40,2013-05-03 02:53:00
10:55 PM,68.0,-9999,N/A,29.92,10.0,NE,5.8,-,N/A,,Overcast,50,2013-05-03 02:55:00
11:15 PM,68.0,-9999,N/A,29.92,10.0,NNE,6.9,-,N/A,,Overcast,30,2013-05-03 03:15:00
11:35 PM,68.0,-9999,N/A,29.91,10.0,NE,6.9,-,N/A,,Overcast,40,2013-05-03 03:35:00
11:53 PM,68.0,63.0,84,29.90,-9999.0,NE,9.2,-,N/A,,Unknown,50,2013-05-03 03:53:00
11:55 PM,68.0,-9999,N/A,29.91,10.0,NE,8.1,-,N/A,,Overcast,50,2013-05-03 03:55:00